Location: Fuglau
(48.6333°N, 15.5500°E)
Time: 19:26:35
(UTC+00:00)

USA 229 - Pass Details

Date: 27 February 2020
Orbit: 986 x 1226 km, 63.4° (Epoch: 26 March)

Event Time Altitude Azimuth Distance (km) Brightness Sun altitude
Rises 17:17:21 0° 237° (WSW) 3,721 7.8 -7.4°
Reaches altitude 10° 17:19:56 10° 242° (WSW) 2,794 7.1 -7.8°
Maximum altitude 17:26:24 57° 320° (NW) 1,229 4.3 -8.9°
Drops below altitude 10° 17:33:16 10° 39° (NE) 2,957 5.6 -10.0°
Sets 17:36:05 0° 43° (NE) 3,954 6.3 -10.5°
